User: anonymous   Login
Location: Newark
(47.3150°N, 5.1150°E)
Time: 15:12:34
(UTC+00:00)
Language:

DX 1 - Orbit

View from above orbital plane
View from above orbital plane
View from above satellite
View from above satellite

Ground track
Ground track

The orbit data is extracted from the following two-line orbital elements,

1 40071U 14037C   19343.42658704  .00000084  00000-0  18276-4 0  9993
2 40071  98.4443 146.4136 0009155  35.5883 324.5943 14.81315337292978
Epoch (UTC): 09 December 2019 10:14:17
Eccentricity: 0.0009155
inclination: 98.4443°
perigee height: 619 km
apogee height: 631 km
right ascension of ascending node: 146.4136°
argument of perigee: 35.5883°
revolutions per day: 14.81315337
mean anomaly at epoch: 324.5943°
orbit number at epoch: 29297

The dashed part of the orbit path shows where the satellite is in the earth's shadow,  

DLR